FW0267 Weather Reports


time (UTC)temp
C
wind
direction
speed
KPH
gust
KPH
rain 1hr
cm
rain 24hr
cm
rain mn
cm
humidity
%
barometer
mb
20260507110056 13 325 0.0 0.0 0.00 0.30 0.13 1 1011.7
20260507105544 13 325 0.0 0.0 0.03 0.30 0.13 1 1011.5
20260507105042 13 325 0.0 0.0 0.03 0.30 0.13 1 1011.4
20260507104548 13 325 0.0 0.0 0.03 0.30 0.13 1 1011.4
20260507104039 13 325 0.0 0.0 0.05 0.30 0.13 1 1011.2
20260507103541 13 325 0.0 3.2 0.05 0.30 0.13 1 1011.2
20260507103055 13 321 0.0 0.0 0.05 0.30 0.13 1 1011.1
20260507102534 13 321 0.0 0.0 0.05 0.30 0.13 1 1010.9
20260507102033 14 321 0.0 0.0 0.05 0.30 0.13 1 1010.8
20260507101535 14 339 0.0 0.0 0.05 0.30 0.13 1 1010.9
20260507101032 14 339 0.0 0.0 0.05 0.30 0.13 1 1010.9
20260507100529 14 344 0.0 0.0 0.05 0.30 0.13 1 1011.0
20260507100029 14 344 0.0 0.0 0.08 0.30 0.13 1 1011.2
20260507095526 14 344 0.0 3.2 0.05 0.28 0.10 1 1011.2
20260507095025 15 344 0.0 6.4 0.08 0.28 0.10 1 1011.2
20260507094523 15 355 1.6 6.4 0.08 0.28 0.10 1 1010.9
20260507094021 15 327 0.0 4.8 0.08 0.25 0.08 1 1010.8
20260507093523 15 327 0.0 6.4 0.08 0.25 0.08 1 1011.1
20260507093018 15 327 0.0 3.2 0.08 0.25 0.08 1 1011.2
20260507092517 15 327 1.6 3.2 0.08 0.25 0.08 1 1011.0
20260507092016 15 327 0.0 9.7 0.08 0.25 0.08 1 1011.1
20260507091514 15 327 0.0 9.7 0.08 0.25 0.08 1 1011.0
20260507091012 16 141 0.0 6.4 0.08 0.25 0.08 1 1010.9
20260507090510 16 289 0.0 4.8 0.08 0.25 0.08 1 1010.8
20260507090011 16 328 0.0 8.0 0.05 0.23 0.05 1 1010.8
20260507085508 16 322 0.0 12.9 0.05 0.23 0.05 1 1010.8
20260507085010 17 328 1.6 12.9 0.03 0.20 0.03 1 1010.7
20260507084519 17 274 1.6 8.0 0.00 0.18 0.00 1 1010.8
20260507084004 18 191 1.6 8.0 0.00 0.18 0.00 1 1010.5
20260507083502 18 334 1.6 9.7 0.00 0.18 0.00 1 1010.4
20260507082601 19 319 0.0 4.8 0.00 0.18 0.00 1 1009.9
20260507082101 20 210 0.0 0.0 0.00 0.18 0.00 1 1010.0
20260507081559 20 210 0.0 0.0 0.00 0.18 0.00 1 1010.1
20260507081055 20 210 0.0 0.0 0.00 0.18 0.00 1 1010.1
20260507080553 20 210 0.0 0.0 0.00 0.18 0.00 1 1010.1
20260507080055 20 210 0.0 0.0 0.00 0.18 0.00 1 1010.0
20260507075554 20 210 0.0 0.0 0.00 0.18 0.00 1 1009.9
20260507075051 20 210 0.0 0.0 0.00 0.18 0.00 1 1009.5
20260507074552 20 210 0.0 0.0 0.00 0.18 0.00 1 1009.2
20260507074047 20 210 0.0 0.0 0.00 0.18 0.00 1 1009.4
20260507073546 20 210 0.0 0.0 0.00 0.18 0.00 1 1009.5
20260507073045 20 210 0.0 0.0 0.00 0.18 0.00 1 1009.6
20260507072543 20 210 0.0 0.0 0.00 0.18 0.00 1 1009.4
20260507072041 20 210 0.0 0.0 0.00 0.18 0.00 1 1009.6
20260507071541 20 210 0.0 4.8 0.00 0.18 0.00 1 1009.3
20260507071038 20 210 1.6 4.8 0.00 0.18 0.00 1 1009.8
20260507070537 20 210 0.0 4.8 0.00 0.18 0.00 1 1009.7
20260507070053 20 209 1.6 6.4 0.00 0.18 0.00 1 1009.7
20260507065534 20 192 1.6 4.8 0.00 0.18 0.00 1 1009.3
20260507065033 20 192 0.0 4.8 0.00 0.18 0.00 1 1009.4
20260507064531 20 192 1.6 4.8 0.00 0.18 0.00 1 1009.5
20260507064030 20 192 0.0 4.8 0.00 0.18 0.00 1 1009.4
20260507063529 20 190 0.0 3.2 0.00 0.18 0.00 1 1009.3
20260507063027 20 193 0.0 4.8 0.00 0.18 0.00 1 1009.1
20260507062524 20 193 0.0 4.8 0.00 0.18 0.00 1 1009.1
20260507062024 20 153 0.0 0.0 0.00 0.18 0.00 1 1009.1
20260507061522 20 153 0.0 6.4 0.00 0.18 0.00 1 1008.9
20260507061020 20 153 0.0 6.4 0.00 0.18 0.00 1 1008.9
20260507060518 20 193 0.0 0.0 0.00 0.18 0.00 1 1008.9
20260507060021 20 197 0.0 0.0 0.00 0.18 0.00 1 1009.0
20260507055516 20 196 0.0 0.0 0.00 0.18 0.00 1 1008.9
20260507055014 20 196 0.0 3.2 0.00 0.18 0.00 1 1009.1
20260507054512 20 196 0.0 3.2 0.00 0.18 0.00 1 1009.4
20260507054015 20 196 0.0 0.0 0.00 0.18 0.00 1 1009.3
20260507053510 20 196 0.0 0.0 0.00 0.18 0.00 1 1009.1
20260507053009 20 199 0.0 1.6 0.00 0.18 0.00 1 1009.1
20260507052507 20 199 0.0 4.8 0.00 0.18 0.00 1 1009.2
20260507052005 20 199 0.0 3.2 0.00 0.18 0.00 1 1009.4
20260507051504 20 199 0.0 3.2 0.00 0.18 0.00 1 1009.6
20260507051002 20 199 0.0 4.8 0.00 0.18 0.00 1 1009.7
20260507050502 20 199 0.0 4.8 0.00 0.18 0.00 1 1009.9
20260507050100 20 199 0.0 8.0 0.00 0.18 0.00 1 1010.1
20260507045559 20 162 1.6 8.0 0.00 0.18 0.00 1 1010.2
20260507045057 20 209 1.6 6.4 0.00 0.18 0.00 1 1010.3
20260507044559 20 208 3.2 6.4 0.00 0.18 0.00 1 1010.3
20260507044056 20 207 3.2 8.0 0.00 0.18 0.00 1 1010.2
20260507043553 20 201 4.8 8.0 0.00 0.18 0.00 1 1010.2
20260507043052 20 218 3.2 9.7 0.00 0.18 0.00 1 1010.4
20260507042553 20 173 3.2 4.8 0.00 0.18 0.00 1 1010.4
20260507042048 20 211 1.6 6.4 0.00 0.18 0.00 1 1010.5
20260507041559 20 211 0.0 6.4 0.00 0.18 0.00 1 1010.4
20260507041045 20 209 1.6 4.8 0.00 0.18 0.00 1 1010.4
20260507040544 20 210 0.0 3.2 0.00 0.18 0.00 1 1010.2
20260507040044 20 211 0.0 4.8 0.00 0.18 0.00 1 1010.2
20260507035542 20 211 0.0 6.4 0.00 0.18 0.18 1 1010.1
20260507035042 20 216 1.6 6.4 0.00 0.18 0.18 1 1010.4
20260507034542 20 189 0.0 4.8 0.00 0.18 0.18 1 1010.4
20260507034041 20 187 1.6 4.8 0.00 0.18 0.18 1 1010.5
20260507033541 20 188 0.0 4.8 0.00 0.18 0.18 1 1010.3
20260507033042 20 182 0.0 3.2 0.00 0.18 0.18 1 1010.4
20260507032542 20 182 0.0 3.2 0.00 0.18 0.18 1 1010.0
20260507032041 20 188 0.0 4.8 0.00 0.18 0.18 1 1010.0
20260507031542 20 192 0.0 4.8 0.00 0.18 0.18 1 1009.8
20260507031041 20 192 0.0 3.2 0.00 0.18 0.18 1 1009.9
20260507030541 20 192 0.0 4.8 0.00 0.18 0.18 1 1010.0
20260507030041 20 192 0.0 4.8 0.00 0.18 0.18 1 1010.0
20260507025540 20 192 0.0 14.5 0.00 0.18 0.18 1 1009.9
20260507025040 20 192 1.6 14.5 0.00 0.18 0.18 1 1009.8
20260507024540 20 144 0.0 4.8 0.00 0.18 0.18 1 1009.8
20260507024040 20 143 0.0 0.0 0.00 0.18 0.18 1 1009.9
20260507023539 20 143 0.0 6.4 0.00 0.18 0.18 1 1010.1
20260507023039 20 143 1.6 6.4 0.00 0.18 0.18 1 1010.1
20260507022539 20 164 0.0 3.2 0.00 0.18 0.18 1 1010.1
20260507022040 20 164 0.0 3.2 0.00 0.18 0.18 1 1010.2
20260507021540 20 164 0.0 6.4 0.00 0.18 0.18 1 1010.3
20260507021038 20 164 1.6 6.4 0.00 0.18 0.18 1 1010.2
20260507020537 20 146 0.0 0.0 0.00 0.18 0.18 1 1010.4
20260507020041 20 146 0.0 8.0 0.00 0.18 0.18 1 1010.5
20260507015533 20 146 0.0 8.0 0.00 0.18 0.18 1 1010.5
20260507015032 20 166 0.0 3.2 0.00 0.18 0.18 1 1010.4
20260507014532 20 166 0.0 3.2 0.00 0.18 0.18 1 1010.5
20260507014029 20 166 0.0 3.2 0.00 0.18 0.18 1 1010.4
20260507013527 20 166 0.0 0.0 0.00 0.18 0.18 1 1010.4
20260507013026 20 166 0.0 0.0 0.00 0.18 0.18 1 1010.3
20260507012525 20 166 0.0 0.0 0.00 0.18 0.18 1 1010.3
20260507012025 20 166 0.0 0.0 0.00 0.18 0.18 1 1010.2
20260507011524 20 166 0.0 0.0 0.00 0.18 0.18 1 1010.3
20260507011020 20 166 0.0 0.0 0.00 0.18 0.18 1 1010.3
20260507010522 20 166 0.0 3.2 0.00 0.18 0.18 1 1010.2
20260507010024 20 166 0.0 3.2 0.00 0.18 0.18 1 1010.2
20260507005516 20 160 0.0 0.0 0.00 0.18 0.18 1 1010.2
20260507005014 20 160 0.0 0.0 0.00 0.18 0.18 1 1010.2
20260507004513 20 160 0.0 0.0 0.00 0.18 0.18 1 1010.1
20260507004012 20 160 0.0 0.0 0.00 0.18 0.18 1 1010.3
20260507003511 20 160 0.0 0.0 0.00 0.18 0.18 1 1010.2
20260507003008 20 160 0.0 0.0 0.00 0.18 0.18 1 1010.4
20260507002507 20 160 0.0 0.0 0.00 0.18 0.18 1 1010.3
20260507002006 21 160 0.0 0.0 0.00 0.18 0.18 1 1010.3
20260507001506 21 160 0.0 0.0 0.00 0.18 0.18 1 1010.4
20260507001006 21 160 0.0 1.6 0.00 0.18 0.18 1 1010.5
20260507000506 21 160 0.0 4.8 0.00 0.18 0.18 1 1010.5
20260507000007 21 160 0.0 4.8 0.00 0.18 0.18 1 1010.4
20260506235507 21 159 0.0 4.8 0.00 0.18 0.18 1 1010.3
20260506235003 21 159 1.6 4.8 0.00 0.18 0.18 1 1010.2
20260506234505 21 121 0.0 3.2 0.00 0.18 0.18 1 1010.2
20260506234004 21 121 1.6 6.4 0.00 0.18 0.18 1 1010.1
20260506233504 21 115 0.0 6.4 0.00 0.18 0.18 1 1009.9
20260506233003 21 197 0.0 0.0 0.00 0.18 0.18 1 1010.0
20260506232504 21 197 0.0 4.8 0.00 0.18 0.18 1 1010.1
20260506232003 21 197 0.0 6.4 0.00 0.18 0.18 1 1010.0
20260506231506 21 197 1.6 6.4 0.00 0.18 0.18 1 1010.0
20260506231003 21 222 0.0 0.0 0.00 0.18 0.18 1 1010.1
20260506230500 21 222 0.0 3.2 0.00 0.18 0.18 1 1009.9
20260506230105 21 222 0.0 4.8 0.00 0.18 0.18 1 1010.0
20260506225558 21 222 0.0 4.8 0.00 0.18 0.18 1 1010.1
20260506225056 21 223 0.0 0.0 0.00 0.18 0.18 1 1010.1
20260506224555 21 223 0.0 4.8 0.00 0.18 0.18 1 1010.0
20260506224053 21 223 1.6 4.8 0.00 0.18 0.18 1 1010.1
20260506223552 21 223 0.0 4.8 0.00 0.18 0.18 1 1010.0
20260506223051 21 223 1.6 8.0 0.00 0.18 0.18 1 1010.0
20260506222551 21 223 1.6 8.0 0.00 0.18 0.18 1 1010.0
20260506222047 21 140 0.0 4.8 0.00 0.18 0.18 1 1010.0
20260506221555 21 136 0.0 4.8 0.00 0.18 0.18 1 1010.0
20260506221045 21 136 0.0 6.4 0.00 0.18 0.18 1 1010.0
20260506220544 21 134 1.6 6.4 0.00 0.18 0.18 1 1009.9
20260506220046 21 238 0.0 6.4 0.00 0.18 0.18 1 1009.9
20260506215541 21 238 1.6 6.4 0.00 0.18 0.18 1 1009.9
20260506215041 21 244 1.6 6.4 0.00 0.18 0.18 1 1009.8
20260506214538 21 217 0.0 6.4 0.00 0.18 0.18 1 1009.9
20260506214037 21 217 3.2 11.3 0.00 0.18 0.18 1 1009.9
20260506213536 21 240 3.2 11.3 0.00 0.18 0.18 1 1010.0
20260506213041 21 252 1.6 6.4 0.00 0.18 0.18 1 1010.1
20260506212532 21 236 3.2 6.4 0.00 0.18 0.18 1 1010.1
20260506212034 21 275 1.6 8.0 0.00 0.18 0.18 1 1010.2
20260506211539 21 236 1.6 8.0 0.00 0.18 0.18 1 1010.2
20260506211028 21 250 1.6 6.4 0.00 0.18 0.18 1 1010.1
20260506210526 21 136 1.6 6.4 0.00 0.18 0.18 1 1010.1
20260506210033 21 146 1.6 6.4 0.00 0.18 0.18 1 1009.9
20260506205523 21 209 0.0 6.4 0.00 0.18 0.18 1 1009.9
20260506205021 21 209 1.6 8.0 0.00 0.18 0.18 1 1010.0
20260506204523 21 209 1.6 8.0 0.00 0.18 0.18 1 1010.0
20260506204019 21 133 1.6 8.0 0.00 0.18 0.18 1 1010.0
20260506203517 21 201 0.0 4.8 0.00 0.18 0.18 1 1010.0
20260506203015 20 142 0.0 4.8 0.00 0.18 0.18 1 1009.9
20260506202514 20 142 0.0 3.2 0.00 0.18 0.18 1 1010.0
20260506202015 20 142 0.0 0.0 0.00 0.18 0.18 1 1010.0
20260506201512 20 142 0.0 3.2 0.00 0.18 0.18 1 1010.2
20260506201010 20 140 0.0 3.2 0.00 0.18 0.18 1 1010.2
20260506200508 20 139 0.0 4.8 0.00 0.18 0.18 1 1009.8
20260506200010 20 139 0.0 4.8 0.00 0.18 0.18 1 1010.1
20260506195509 20 139 0.0 4.8 0.00 0.18 0.18 1 1009.7
20260506195006 20 148 0.0 8.0 0.00 0.18 0.18 1 1009.4
20260506194503 20 148 1.6 8.0 0.00 0.18 0.18 1 1009.4
20260506194001 20 192 0.0 4.8 0.03 0.18 0.18 1 1009.3
20260506193559 20 204 0.0 4.8 0.03 0.18 0.18 1 1009.3
20260506193059 19 204 0.0 4.8 0.03 0.18 0.18 1 1009.5
20260506192556 19 174 0.0 4.8 0.03 0.18 0.18 1 1009.7
20260506192056 19 174 1.6 6.4 0.03 0.18 0.18 1 1009.8
20260506191600 19 173 1.6 4.8 0.03 0.18 0.18 1 1010.0
20260506191053 19 169 0.0 8.0 0.03 0.18 0.18 1 1010.2
20260506190552 18 253 0.0 4.8 0.03 0.18 0.18 1 1010.3
20260506190051 18 253 0.0 4.8 0.03 0.18 0.18 1 1010.5
20260506185547 18 253 1.6 4.8 0.03 0.18 0.18 1 1010.6
20260506185046 18 253 0.0 11.3 0.03 0.18 0.18 1 1010.4
20260506184545 18 205 1.6 12.9 0.03 0.18 0.18 1 1010.3
20260506184045 18 214 1.6 11.3 0.00 0.15 0.15 1 1010.7
20260506183542 18 211 3.2 11.3 0.00 0.15 0.15 1 1010.4
20260506183041 18 229 3.2 16.1 0.00 0.15 0.15 1 1010.8
20260506182539 18 211 0.0 6.4 0.00 0.15 0.15 1 1011.0
20260506182037 18 211 3.2 6.4 0.00 0.15 0.15 1 1011.1
20260506181546 18 234 1.6 4.8 0.00 0.15 0.15 1 1011.2
20260506181035 18 215 1.6 6.4 0.00 0.15 0.15 1 1011.3
20260506180534 18 215 1.6 6.4 0.00 0.15 0.15 1 1011.3
20260506180032 18 207 3.2 11.3 0.00 0.15 0.15 1 1011.3
20260506175530 18 183 3.2 9.7 0.00 0.15 0.15 1 1011.4
20260506175028 18 203 3.2 12.9 0.00 0.15 0.15 1 1011.4
20260506174532 18 243 1.6 8.0 0.00 0.15 0.15 1 1011.4
20260506174028 18 236 1.6 12.9 0.00 0.15 0.15 1 1011.5
20260506173527 18 236 1.6 12.9 0.00 0.15 0.15 1 1011.5
20260506173040 18 61 1.6 8.0 0.00 0.15 0.15 1 1011.4
20260506172521 18 232 1.6 8.0 0.00 0.15 0.15 1 1011.3
20260506172020 18 236 1.6 6.4 0.00 0.15 0.15 1 1011.4
20260506171520 18 225 0.0 8.0 0.00 0.15 0.15 1 1011.3
20260506171019 18 225 1.6 8.0 0.00 0.15 0.15 1 1011.3
20260506170515 18 115 0.0 8.0 0.00 0.15 0.15 1 1011.3
20260506170013 18 180 0.0 9.7 0.00 0.15 0.15 1 1011.7
20260506165515 18 233 1.6 9.7 0.00 0.15 0.15 1 1011.9
20260506165010 18 202 3.2 9.7 0.00 0.15 0.15 1 1011.6
20260506164510 18 200 1.6 8.0 0.00 0.15 0.15 1 1011.4
20260506164007 17 188 1.6 8.0 0.00 0.15 0.15 1 1011.4
20260506163506 17 184 1.6 6.4 0.00 0.15 0.15 1 1011.7
20260506163009 17 178 3.2 8.0 0.00 0.15 0.15 1 1011.9
20260506162508 17 179 1.6 4.8 0.00 0.15 0.15 1 1011.5
20260506162004 17 179 1.6 9.7 0.00 0.15 0.15 1 1011.4
20260506161501 17 213 3.2 9.7 0.00 0.15 0.15 1 1011.5
20260506161059 17 178 1.6 6.4 0.00 0.15 0.15 1 1011.5
20260506160557 17 178 1.6 14.5 0.00 0.15 0.15 1 1011.5
20260506160057 17 24 1.6 22.5 0.00 0.15 0.15 1 1011.7
20260506155558 17 151 3.2 11.3 0.00 0.15 0.15 1 1011.7
20260506155057 17 53 0.0 12.9 0.00 0.15 0.15 1 1011.9
20260506154609 17 178 1.6 12.9 0.03 0.15 0.15 1 1011.9
20260506154050 17 214 1.6 6.4 0.05 0.15 0.15 1 1012.1
20260506153549 17 168 1.6 9.7 0.08 0.15 0.15 1 1012.2
20260506153047 17 184 1.6 9.7 0.10 0.15 0.15 1 1012.3
20260506152547 17 159 0.0 6.4 0.10 0.15 0.15 1 1012.3
20260506152044 17 83 1.6 6.4 0.10 0.15 0.15 1 1012.4
20260506151544 17 159 1.6 8.0 0.13 0.15 0.15 1 1012.3
20260506151043 17 148 3.2 8.0 0.13 0.15 0.15 1 1012.3
20260506150542 17 183 0.0 12.9 0.13 0.15 0.15 1 1012.3
20260506150040 17 180 1.6 12.9 0.15 0.15 0.15 1 1012.4
20260506145540 17 169 1.6 8.0 0.15 0.15 0.15 1 1012.4
20260506145038 17 179 1.6 4.8 0.15 0.15 0.15 1 1012.6
20260506144542 17 183 0.0 6.4 0.13 0.13 0.13 1 1012.5
20260506144034 17 159 0.0 4.8 0.10 0.10 0.10 1 1012.6
20260506143533 17 178 0.0 4.8 0.08 0.08 0.08 1 1012.9
20260506143031 17 174 0.0 0.0 0.05 0.05 0.05 1 1012.8
20260506142529 17 174 0.0 0.0 0.05 0.05 0.05 1 1012.9
20260506142028 17 174 0.0 0.0 0.05 0.05 0.05 1 1012.8
20260506141527 17 174 0.0 4.8 0.03 0.03 0.03 1 1012.8
20260506141025 17 174 1.6 9.7 0.03 0.03 0.03 1 1012.7
20260506140523 18 191 0.0 9.7 0.03 0.03 0.03 1 1012.6
20260506140023 18 156 1.6 8.0 0.00 0.00 0.00 1 1012.6
20260506135521 18 180 3.2 6.4 0.00 0.00 0.00 1 1012.5
20260506135022 18 180 1.6 9.7 0.00 0.00 0.00 9 1012.6
20260506134517 18 236 3.2 9.7 0.00 0.00 0.00 18 1012.6
20260506134017 18 224 3.2 8.0 0.00 0.00 0.00 20 1012.7
20260506133518 18 205 3.2 16.1 0.00 0.00 0.00 22 1012.6
20260506133014 18 160 3.2 16.1 0.00 0.00 0.00 22 1012.5
20260506132512 18 199 3.2 9.7 0.00 0.00 0.00 22 1012.6
20260506132014 18 207 3.2 9.7 0.00 0.00 0.00 21 1012.4
20260506131509 18 212 1.6 6.4 0.00 0.00 0.00 20 1012.5
20260506131011 18 211 1.6 12.9 0.00 0.00 0.00 20 1012.4
20260506130509 18 167 3.2 9.7 0.00 0.00 0.00 19 1012.2
20260506130006 18 223 3.2 12.9 0.00 0.00 0.00 17 1012.3
20260506125503 18 137 3.2 11.3 0.00 0.00 0.00 17 1012.2
20260506125004 18 142 3.2 16.1 0.00 0.00 0.00 15 1012.1
20260506124601 18 167 3.2 16.1 0.00 0.00 0.00 13 1012.1
20260506124058 18 240 1.6 6.4 0.00 0.00 0.00 11 1012.2
20260506123558 18 200 1.6 4.8 0.00 0.00 0.00 10 1012.1
20260506123056 18 200 1.6 4.8 0.00 0.00 0.00 12 1012.1
20260506122554 18 197 3.2 14.5 0.00 0.00 0.00 12 1012.0
20260506122053 18 178 1.6 11.3 0.00 0.00 0.00 12 1011.9
20260506121551 18 200 3.2 11.3 0.00 0.00 0.00 11 1011.9
20260506121049 18 159 1.6 11.3 0.00 0.00 0.00 8 1012.0
20260506120549 18 159 3.2 11.3 0.00 0.00 0.00 8 1012.1
20260506120047 18 186 3.2 9.7 0.00 0.00 0.00 6 1012.1
20260506115544 17 180 3.2 9.7 0.00 0.00 0.00 6 1012.1
20260506115043 17 165 0.0 8.0 0.00 0.00 0.00 6 1012.2
20260506114547 17 165 3.2 8.0 0.00 0.00 0.00 6 1012.2
20260506114040 17 173 1.6 6.4 0.00 0.00 0.00 5 1012.1
20260506113539 17 177 1.6 4.8 0.00 0.00 0.00 5 1012.1
20260506113038 17 173 1.6 11.3 0.00 0.00 0.00 5 1012.0
20260506112536 17 170 3.2 11.3 0.00 0.00 0.00 6 1012.1
20260506112034 17 154 1.6 9.7 0.00 0.00 0.00 7 1012.1
20260506111533 17 150 1.6 8.0 0.00 0.00 0.00 7 1012.1
20260506111032 17 241 1.6 9.7 0.00 0.00 0.00 8 1012.0
20260506110530 17 194 3.2 9.7 0.00 0.00 0.00 9 1012.0